Location: Niverville
(49.6028°N, 97.0419°W)
Time: 18:41:20
(UTC-05:00)

ISS - All Passes

Search period start: 22 May 2015 00:00
Search period end: 01 June 2015 00:00
Orbit: 399 x 404 km, 51.6° (Epoch: 22 May)

Date Brightness Start Highest point End Pass type
(mag) Time Alt. Az. Time Alt. Az. Time Alt. Az.
22 May - 02:36:10 10° SSW 02:38:52 24° SE 02:41:37 10° E visible
22 May - 04:11:45 10° WSW 04:15:02 87° N 04:18:19 10° ENE visible
22 May - 05:48:22 10° WNW 05:51:37 58° N 05:54:52 10° E daylight
22 May - 07:24:52 10° WNW 07:28:08 72° SSW 07:31:24 10° ESE daylight
22 May - 09:01:55 10° W 09:04:09 17° SW 09:06:19 10° S daylight
23 May - 01:43:54 10° S 01:45:52 15° SE 01:47:54 10° E visible
23 May - 03:18:37 10° WSW 03:21:51 67° SSE 03:25:07 10° ENE visible
23 May - 04:55:07 10° W 04:58:21 58° N 05:01:36 10° ENE visible
23 May - 06:31:39 10° WNW 06:34:57 83° NNE 06:38:14 10° ESE daylight
23 May - 08:08:18 10° W 08:11:08 27° SW 08:13:57 10° SSE daylight
24 May - 02:25:35 10° SW 02:28:42 43° SSE 02:31:50 10° ENE visible
24 May - 04:01:49 10° W 04:05:04 66° N 04:08:20 10° ENE visible
24 May - 05:38:25 10° WNW 05:41:41 66° N 05:44:57 10° E daylight
24 May - 07:14:55 10° WNW 07:18:03 42° SSW 07:21:09 10° SE daylight
25 May - 01:32:46 10° SSW 01:35:35 27° SE 01:38:26 10° E visible
25 May - 03:08:31 10° WSW 03:11:47 82° NNW 03:15:04 10° ENE visible
25 May - 04:45:08 10° WNW 04:48:23 59° N 04:51:37 10° E visible
25 May - 06:21:37 10° WNW 06:24:52 65° SSW 06:28:07 10° ESE daylight
25 May - 07:58:52 10° WSW 08:00:50 15° SW 08:02:44 10° S daylight
26 May - 00:40:18 10° S 00:42:29 17° SE 00:44:45 10° E visible
26 May - 02:15:16 10° WSW 02:18:31 73° SSE 02:21:47 10° ENE visible
26 May - 03:51:48 10° W 03:55:02 58° N 03:58:16 10° ENE visible
26 May - 05:28:19 10° WNW 05:31:36 89° NNE 05:34:53 10° ESE daylight
26 May - 07:05:02 10° W 07:07:45 24° SW 07:10:26 10° SSE daylight
26 May - 23:49:05 10° SE 23:49:26 10° SE 23:49:55 10° SE night (unlit)
27 May - 01:22:07 10° SW 01:25:16 48° SSE 01:28:26 10° ENE visible
27 May - 02:58:25 10° W 03:01:40 63° N 03:04:55 10° ENE visible
27 May - 04:35:01 10° WNW 04:38:17 69° NNE 04:41:33 10° E visible
27 May - 06:11:31 10° W 06:14:35 38° SSW 06:17:38 10° SE daylight
28 May - 00:29:09 10° SSW 00:32:03 30° SSE 00:34:59 10° E visible
28 May - 02:05:02 10° WSW 02:08:18 77° NNW 02:11:34 10° ENE visible
28 May - 03:41:39 10° WNW 03:44:54 60° N 03:48:08 10° E visible
28 May - 05:18:07 10° WNW 05:21:21 59° SSW 05:24:34 10° SE daylight
28 May - 06:55:36 10° WSW 06:57:15 13° SW 06:58:51 10° SSW daylight
28 May - 23:36:30 10° S 23:38:53 19° SE 23:41:19 10° E visible
29 May - 01:11:41 10° WSW 01:14:57 80° SSE 01:18:12 10° ENE visible
29 May - 02:48:14 10° W 02:51:28 57° N 02:54:42 10° E visible
29 May - 04:24:44 10° WNW 04:28:01 86° SSW 04:31:17 10° ESE visible
29 May - 06:01:32 10° W 06:04:07 21° SW 06:06:40 10° SSE daylight
29 May - 22:44:35 10° SSE 22:45:44 12° SE 22:46:59 10° ESE visible
30 May - 00:18:25 10° SW 00:21:36 54° SSE 00:24:48 10° ENE visible
30 May - 01:54:47 10° W 01:58:01 61° N 02:01:16 10° ENE visible
30 May - 03:31:21 10° WNW 03:34:37 73° NNE 03:37:53 10° E visible
30 May - 05:07:53 10° W 05:10:53 34° SSW 05:13:53 10° SE daylight
30 May - 23:25:19 10° SW 23:28:17 34° SSE 23:31:18 10° E visible
31 May - 01:01:19 10° W 01:04:33 73° NNW 01:07:50 10° ENE visible
31 May - 02:37:56 10° WNW 02:41:10 61° N 02:44:24 10° E visible
31 May - 04:14:23 10° WNW 04:17:35 53° SSW 04:20:46 10° SE visible
31 May - 05:52:12 10° WSW 05:53:27 12° SW 05:54:36 10° SSW daylight
31 May - 22:32:30 10° SSW 22:35:02 21° SE 22:37:35 10° E visible
